When you browse on this site, cookies collect data to enhance your experience and personalize the content and advertising you see.
Visit our Privacy Policy to learn more. By continuing to use the site, you agree to this use of cookies and data.
  • En España
  • Lista de países
  • Para 7 días
  • Temperatura del agua
  • El tiempo en el mapa
  • Informadores
  • user-avatar
    Iniciar sesión

    Tiempo cada hora Taldy Kurgan

    Hoy, 20 Agosto, Martes

    Tiempo Temperatura Precipitaciones Viento Presión Humedad
    00:00 +20°C° 0 mm 2 mps 715 mmHg 42%
    01:00 +19°C° 0 mm 2 mps 715 mmHg 44%
    02:00 +18°C° 0 mm 2 mps 715 mmHg 45%
    03:00 +18°C° 0 mm 2 mps 715 mmHg 46%
    04:00 +18°C° 0 mm 2 mps 715 mmHg 47%
    05:00 +18°C° 0 mm 2 mps 715 mmHg 48%
    06:00 +21°C° 0 mm 1 mps 715 mmHg 42%
    07:00 +24°C° 0 mm 1 mps 716 mmHg 35%
    08:00 +25°C° 0 mm 0 mps 717 mmHg 29%
    09:00 +28°C° 0 mm 1 mps 716 mmHg 27%
    10:00 +29°C° 0 mm 2 mps 716 mmHg 25%
    11:00 +30°C° 0 mm 2 mps 716 mmHg 22%
    12:00 +31°C° 0 mm 3 mps 716 mmHg 21%
    13:00 +31°C° 0 mm 3 mps 715 mmHg 20%
    14:00 +33°C° 0 mm 3 mps 715 mmHg 18%
    15:00 +33°C° 0 mm 3 mps 715 mmHg 18%
    16:00 +31°C° 0 mm 3 mps 715 mmHg 18%
    17:00 +32°C° 0 mm 4 mps 714 mmHg 19%
    18:00 +29°C° 0 mm 3 mps 714 mmHg 22%
    19:00 +27°C° 0 mm 3 mps 714 mmHg 25%
    20:00 +24°C° 0 mm 2 mps 714 mmHg 29%
    21:00 +24°C° 0 mm 2 mps 714 mmHg 31%
    22:00 +23°C° 0 mm 2 mps 714 mmHg 33%
    23:00 +21°C° 0 mm 2 mps 713 mmHg 35%

    Mañana, 21 Agosto, Miércoles

    Tiempo Temperatura Precipitaciones Viento Presión Humedad
    00:00 +21°C° 0 mm 2 mps 713 mmHg 36%
    01:00 +20°C° 0 mm 2 mps 712 mmHg 38%
    02:00 +20°C° 0 mm 2 mps 712 mmHg 39%
    03:00 +20°C° 0 mm 2 mps 712 mmHg 39%
    04:00 +19°C° 0 mm 2 mps 712 mmHg 40%
    05:00 +19°C° 0 mm 2 mps 712 mmHg 40%
    06:00 +23°C° 0 mm 2 mps 712 mmHg 34%
    07:00 +26°C° 0 mm 1 mps 712 mmHg 29%
    08:00 +29°C° 0 mm 1 mps 712 mmHg 23%
    09:00 +30°C° 0 mm 1 mps 712 mmHg 21%
    10:00 +31°C° 0 mm 2 mps 712 mmHg 19%
    11:00 +34°C° 0 mm 2 mps 712 mmHg 17%
    12:00 +34°C° 0 mm 3 mps 711 mmHg 16%
    13:00 +35°C° 0 mm 3 mps 711 mmHg 15%
    14:00 +36°C° 0 mm 4 mps 710 mmHg 15%
    15:00 +35°C° 0 mm 4 mps 710 mmHg 15%
    16:00 +35°C° 0 mm 4 mps 710 mmHg 15%
    17:00 +35°C° 0 mm 4 mps 710 mmHg 15%
    18:00 +31°C° 0 mm 3 mps 710 mmHg 19%
    19:00 +28°C° 0 mm 2 mps 709 mmHg 22%
    20:00 +26°C° 0 mm 1 mps 709 mmHg 25%
    21:00 +25°C° 0 mm 1 mps 709 mmHg 28%
    22:00 +24°C° 0 mm 2 mps 709 mmHg 30%
    23:00 +24°C° 0 mm 2 mps 708 mmHg 32%

    Pasado mañana, 22 Agosto, Jueves

    Tiempo Temperatura Precipitaciones Viento Presión Humedad
    00:00 +23°C° 0 mm 2 mps 708 mmHg 36%
    01:00 +23°C° 0 mm 2 mps 708 mmHg 40%
    02:00 +21°C° 0 mm 2 mps 708 mmHg 43%
    03:00 +21°C° 0.1 mm 2 mps 708 mmHg 47%
    04:00 +21°C° 0.1 mm 2 mps 708 mmHg 50%
    05:00 +20°C° 0.1 mm 2 mps 708 mmHg 54%
    06:00 +23°C° 0.2 mm 2 mps 709 mmHg 49%
    07:00 +25°C° 0.2 mm 2 mps 709 mmHg 44%
    08:00 +27°C° 0.2 mm 2 mps 709 mmHg 38%
    09:00 +28°C° 0 mm 2 mps 709 mmHg 33%
    10:00 +30°C° 0 mm 3 mps 709 mmHg 29%
    11:00 +32°C° 0 mm 4 mps 709 mmHg 24%
    12:00 +33°C° 0 mm 4 mps 709 mmHg 22%
    13:00 +34°C° 0 mm 4 mps 709 mmHg 20%
    14:00 +34°C° 0 mm 4 mps 709 mmHg 19%
    15:00 +34°C° 0 mm 4 mps 709 mmHg 20%
    16:00 +33°C° 0 mm 4 mps 709 mmHg 22%
    17:00 +32°C° 0 mm 4 mps 709 mmHg 23%
    18:00 +29°C° 0 mm 5 mps 709 mmHg 31%
    19:00 +26°C° 0 mm 6 mps 709 mmHg 38%
    20:00 +22°C° 0 mm 6 mps 709 mmHg 46%
    21:00 +22°C° 0.1 mm 5 mps 709 mmHg 47%
    22:00 +22°C° 0.1 mm 4 mps 709 mmHg 48%
    23:00 +21°C° 0.1 mm 2 mps 709 mmHg 49%

    23 Agosto, Viernes

    Tiempo Temperatura Precipitaciones Viento Presión Humedad
    00:00 +21°C° 0.1 mm 2 mps 709 mmHg 51%
    01:00 +20°C° 0.1 mm 2 mps 709 mmHg 52%
    02:00 +20°C° 0.1 mm 2 mps 708 mmHg 54%
    03:00 +19°C° 0.3 mm 2 mps 709 mmHg 59%
    04:00 +18°C° 0.3 mm 3 mps 709 mmHg 65%
    05:00 +18°C° 0.3 mm 3 mps 709 mmHg 70%
    06:00 +19°C° 0.5 mm 3 mps 709 mmHg 67%
    07:00 +20°C° 0.5 mm 3 mps 710 mmHg 63%
    08:00 +21°C° 0.5 mm 3 mps 710 mmHg 59%
    09:00 +22°C° 0.5 mm 3 mps 710 mmHg 57%
    10:00 +23°C° 0.5 mm 4 mps 710 mmHg 54%
    11:00 +25°C° 0.5 mm 4 mps 711 mmHg 51%
    12:00 +26°C° 0.1 mm 4 mps 711 mmHg 47%
    13:00 +27°C° 0.1 mm 4 mps 711 mmHg 43%
    14:00 +28°C° 0.1 mm 5 mps 711 mmHg 39%
    15:00 +28°C° 0 mm 5 mps 711 mmHg 37%
    16:00 +28°C° 0 mm 6 mps 711 mmHg 35%
    17:00 +27°C° 0 mm 6 mps 711 mmHg 33%
    18:00 +26°C° 0 mm 5 mps 711 mmHg 32%
    19:00 +23°C° 0 mm 4 mps 711 mmHg 32%
    20:00 +21°C° 0 mm 4 mps 712 mmHg 31%
    21:00 +20°C° 0 mm 3 mps 712 mmHg 32%
    22:00 +20°C° 0 mm 3 mps 712 mmHg 34%
    23:00 +19°C° 0 mm 2 mps 713 mmHg 36%

    24 Agosto, Sábado

    Tiempo Temperatura Precipitaciones Viento Presión Humedad
    00:00 +19°C° 0 mm 2 mps 713 mmHg 37%
    01:00 +18°C° 0 mm 2 mps 713 mmHg 39%
    02:00 +18°C° 0 mm 2 mps 713 mmHg 41%
    03:00 +17°C° 0 mm 2 mps 713 mmHg 43%
    04:00 +17°C° 0 mm 2 mps 714 mmHg 46%
    05:00 +16°C° 0 mm 2 mps 714 mmHg 48%
    06:00 +18°C° 0 mm 3 mps 715 mmHg 43%
    07:00 +21°C° 0 mm 4 mps 715 mmHg 38%
    08:00 +23°C° 0 mm 4 mps 716 mmHg 33%
    09:00 +25°C° 0 mm 5 mps 716 mmHg 31%
    10:00 +26°C° 0 mm 6 mps 716 mmHg 28%
    11:00 +27°C° 0 mm 6 mps 716 mmHg 26%
    12:00 +28°C° 0 mm 6 mps 716 mmHg 25%
    13:00 +28°C° 0 mm 6 mps 716 mmHg 23%
    14:00 +29°C° 0 mm 6 mps 716 mmHg 22%
    15:00 +28°C° 0 mm 6 mps 716 mmHg 22%
    16:00 +28°C° 0 mm 6 mps 716 mmHg 23%
    17:00 +27°C° 0 mm 7 mps 716 mmHg 23%
    18:00 +24°C° 0 mm 6 mps 716 mmHg 27%
    19:00 +22°C° 0 mm 5 mps 716 mmHg 31%
    20:00 +20°C° 0 mm 4 mps 716 mmHg 35%
    21:00 +20°C° 0 mm 4 mps 716 mmHg 36%
    22:00 +19°C° 0 mm 4 mps 715 mmHg 38%
    23:00 +18°C° 0 mm 4 mps 715 mmHg 39%

    25 Agosto, Domingo

    Tiempo Temperatura Precipitaciones Viento Presión Humedad
    00:00 +18°C° 0 mm 4 mps 715 mmHg 40%
    01:00 +18°C° 0 mm 3 mps 715 mmHg 41%
    02:00 +17°C° 0 mm 3 mps 715 mmHg 42%
    03:00 +17°C° 0 mm 3 mps 714 mmHg 43%
    04:00 +17°C° 0 mm 3 mps 714 mmHg 44%
    05:00 +16°C° 0 mm 3 mps 714 mmHg 44%
    06:00 +19°C° 0 mm 3 mps 714 mmHg 39%
    07:00 +21°C° 0 mm 3 mps 714 mmHg 34%
    08:00 +25°C° 0 mm 3 mps 715 mmHg 29%
    09:00 +27°C° 0 mm 4 mps 714 mmHg 26%
    10:00 +29°C° 0 mm 4 mps 714 mmHg 22%
    11:00 +32°C° 0 mm 4 mps 714 mmHg 19%
    12:00 +33°C° 0 mm 5 mps 714 mmHg 17%
    13:00 +34°C° 0 mm 5 mps 713 mmHg 16%
    14:00 +34°C° 0 mm 5 mps 713 mmHg 14%
    15:00 +34°C° 0 mm 6 mps 713 mmHg 14%
    16:00 +34°C° 0 mm 6 mps 712 mmHg 13%
    17:00 +33°C° 0 mm 6 mps 712 mmHg 13%
    18:00 +30°C° 0 mm 6 mps 712 mmHg 16%
    19:00 +27°C° 0 mm 5 mps 712 mmHg 18%
    20:00 +25°C° 0 mm 4 mps 711 mmHg 21%
    21:00 +23°C° 0 mm 4 mps 711 mmHg 23%
    22:00 +22°C° 0 mm 3 mps 711 mmHg 25%
    23:00 +22°C° 0 mm 3 mps 711 mmHg 27%
    Mostrar más